[[{"header":{"parameterUnit":"m.s-1","parameterCategory":2,"la1":30.2991,"la2":30.254,"lo1":-89.0895,"lo2":-89.0444,"dy":0.0017,"dx":0.0017,"nx":28,"ny":28,"refTime":"2024-04-19T09:00:00:Z","depth":"0","parameterNumber":2,"parameterNumberName":"U-component_of_CURRENTS"},"data":[0,0,0,0,0,0,0,0,0,0,0,0,0,0,0,0,0,0,0,0,0,0,0,0,0,0,0,0,0,0,0,0,0,0,0,0,0,0,0,0,0,0,0,0,0,0,0,0,0,0,0,0,0,0,0,0,0,0,0.2554,0.2553,0,0.2436,0.2435,0.2434,0.2376,0.2376,0.2376,0.2375,0.2378,0.2379,0.2379,0,0,0,0,0,0,0,0,0,0,0,0,0,0.2709,0.2707,0.2555,0.2553,0.2551,0.2437,0.2435,0.2434,0.2376,0.2376,0.2375,0.2375,0.2378,0.2379,0.2379,0,0,0,0,0,0,0,0,0,0,0,0,0,0.2625,0.2706,0.2555,0.2506,0.25,0.2437,0.2435,0.2434,0.2376,0.2376,0.2375,0.2375,0.2378,0.2379,0.2379,0.2394,0,0,0.2381,0.2382,0,0,0,0,0,0,0,0,0.263,0.262,0.2515,0.2509,0.2502,0.2417,0.249,0.2425,0.2377,0.2427,0.2375,0.2375,0.2401,0.2399,0.2382,0.2394,0.2394,0.2381,0.2382,0.2382,0.2382,0,0,0,0,0,0,0,0.2636,0.2625,0.2512,0.2513,0.2505,0.2481,0.247,0.2477,0.2424,0.2423,0.2417,0.2398,0.2398,0.2381,0.2382,0.2394,0.2381,0.2382,0.2382,0.2382,0.2422,0.2423,0,0,0,0,0,0,0.2644,0.263,0.2515,0.2508,0.2562,0.2479,0.2466,0.2448,0.2421,0.2414,0.2399,0.2396,0.2381,0.2381,0.2382,0.2402,0.2382,0.2383,0.2383,0.2421,0.2422,0.2423,0,0,0,0,0,0,0.2648,0.2635,0.252,0.2563,0.2546,0.2477,0.2457,0.2446,0.2428,0.24,0.2397,0.2392,0.238,0.2381,0.2388,0.2402,0.2383,0.2383,0.2421,0.2422,0.2423,0.2439,0,0,0,0,0,0,0.2653,0.2637,0.2647,0.2564,0.2544,0.2483,0.2457,0.2444,0.2415,0.241,0.2394,0.2393,0.238,0.2388,0.2389,0.2402,0.2384,0.242,0.2421,0.2422,0.2438,0.2441,0.2443,0,0,0,0,0,0.2659,0.267,0.2648,0.2635,0.2553,0.2483,0.2471,0.2422,0.2416,0.2406,0.2398,0.2393,0.2397,0.2389,0.239,0.2404,0.2419,0.2421,0.2422,0.2437,0.244,0.2443,0,0,0,0,0,0,0.2741,0.2662,0.2637,0.2623,0.2557,0.2471,0.247,0.243,0.2413,0.2424,0.24,0.2399,0.2409,0.2409,0.24,0.242,0.2409,0.2411,0.2419,0.2422,0.2425,0.2428,0.2384,0,0,0,0,0,0.2763,0.2749,0.2661,0.2649,0.2626,0.2551,0.2525,0.2483,0.2445,0.2436,0.2412,0.241,0.2417,0.2421,0.2419,0.2435,0.2455,0.2446,0.2448,0.2451,0.2455,0.2488,0.2494,0.2428,0.2428,0.2428,0,0,0.2785,0.2745,0.2734,0.2666,0.2622,0.258,0.2536,0.2496,0.2466,0.2445,0.2422,0.2418,0.2423,0.243,0.2436,0.2432,0.2485,0.2453,0.2454,0.2457,0.2491,0.2497,0.2503,0.2429,0.2429,0.2429,0,0,0.2819,0.2795,0.2792,0.2745,0.2678,0.262,0.261,0.2523,0.2499,0.2472,0.2456,0.2459,0.2451,0.245,0.2457,0.2479,0.2496,0.2482,0.25,0.2533,0.2539,0.2544,0.26,0.261,0.2486,0.2486,0.2486,0,0.2856,0.2829,0.2779,0.276,0.2726,0.264,0.2615,0.2575,0.2496,0.2487,0.2473,0.2464,0.2463,0.2484,0.2485,0.2486,0.2514,0.2486,0.2537,0.2542,0.2547,0.2603,0.2614,0.2487,0.2487,0.2487,0.2487,0,0.2865,0.2853,0.285,0.2792,0.2752,0.2717,0.2641,0.2601,0.2562,0.252,0.252,0.251,0.2507,0.2507,0.2504,0.2538,0.2552,0.2534,0.2528,0.2555,0.2613,0.2624,0.2488,0.2488,0.2488,0.2487,0,0,0.2907,0.2867,0.2862,0.2846,0.2767,0.2723,0.2688,0.2623,0.2603,0.2559,0.2554,0.2556,0.2547,0.2554,0.2548,0.257,0.2634,0.2568,0.257,0.2624,0.273,0.2792,0.281,0.2624,0.2625,0.2627,0.2764,0,0.2923,0.2907,0.2875,0.284,0.2819,0.2748,0.2713,0.2656,0.2613,0.2585,0.259,0.2586,0.2568,0.2573,0.2595,0.262,0.266,0.26,0.2696,0.27,0.275,0.2823,0.2737,0.2857,0.2775,0.2777,0.2778,0,0.2921,0.2916,0.2901,0.2859,0.2844,0.2812,0.2739,0.2702,0.2659,0.2637,0.2636,0.2625,0.2658,0.2633,0.2709,0.2673,0.2709,0.2727,0.2733,0.279,0.2781,0.2812,0.288,0.2709,0.2795,0.2794,0.2793,0,0.2938,0.2919,0.2911,0.2894,0.2839,0.2827,0.2789,0.2728,0.2699,0.2679,0.2669,0.2692,0.2716,0.2754,0.2795,0.2758,0.2888,0.2842,0.2937,0.2943,0.289,0.2888,0.2801,0.2907,0.2907,0.2907,0.2906,0,0.2937,0.2928,0.2926,0.2915,0.2901,0.2863,0.2834,0.2788,0.2755,0.273,0.2715,0.2718,0.2744,0.2806,0.2836,0.2947,0.2933,0.297,0.2989,0.2897,0.2895,0.2759,0.2704,0.2912,0.2911,0.291,0.2909,0,0.2928,0.2929,0.2923,0.291,0.2906,0.2895,0.2853,0.2822,0.2798,0.2771,0.2771,0.277,0.2856,0.2905,0.2989,0.3018,0.3016,0.3137,0.3047,0.3053,0.2977,0.2929,0.2873,0.2795,0.3268,0.3271,0.3273,0,0.291,0.2914,0.2923,0.2921,0.2918,0.2905,0.2876,0.284,0.2803,0.2796,0.2784,0.2866,0.2899,0.3078,0.3156,0.3271,0.3105,0.3248,0.3157,0.2991,0.2949,0.2819,0.2745,0.3098,0.3099,0.3099,0.3099,0,0.2884,0.2898,0.2896,0.2906,0.2897,0.2874,0.2844,0.2818,0.2773,0.2763,0.2766,0.2813,0.2997,0.307,0.3245,0.33,0.3076,0.3263,0.3088,0.2829,0.2682,0.2608,0.3003,0.3103,0.3102,0.3102,0.3102,0.3102,0.286,0.2861,0.2869,0.2868,0.2855,0.2817,0.2744,0.2732,0.2688,0.2624,0.2734,0.2756,0.2899,0.3141,0.3184,0.3154,0.3151,0.3048,0.3015,0.2906,0.2782,0.322,0.3341,0.3342,0.3343,0.3343,0.3344,0,0.2815,0.2818,0.282,0.2795,0.2742,0.2761,0.2678,0.2578,0.2497,0.2559,0.257,0.265,0.2746,0.2834,0.2934,0.2876,0.2734,0.2773,0.2497,0.2448,0.2827,0.2765,0.2767,0.2767,0.2768,0.2768,0.2768,0.2768,0.2788,0.277,0.2774,0.2684,0.2651,0.2496,0.2418,0.2321,0.2296,0.226,0.2274,0.2369,0.249,0.2581,0.2529,0.2495,0.2262,0.2236,0.2182,0.2356,0.2374,0.2391,0.2311,0.2219,0.2218,0.168,0.1676,0.1673]},{"header":{"parameterUnit":"m.s-1","parameterCategory":2,"la1":30.2991,"la2":30.254,"lo1":-89.0895,"lo2":-89.0444,"dy":0.0017,"dx":0.0017,"nx":28,"ny":28,"refTime":"2024-04-19T09:00:00:Z","depth":"0","parameterNumber":3,"parameterNumberName":"V-component_of_CURRENTS"},"data":[0,0,0,0,0,0,0,0,0,0,0,0,0,0,0,0,0,0,0,0,0,0,0,0,0,0,0,0,0,0,0,0,0,0,0,0,0,0,0,0,0,0,0,0,0,0,0,0,0,0,0,0,0,0,0,0,0,0,-0.018,-0.0182,0,-0.0375,-0.0376,-0.0378,-0.0451,-0.0451,-0.0451,-0.0451,-0.0519,-0.0521,-0.0523,0,0,0,0,0,0,0,0,0,0,0,0,0,0.006,0.0057,-0.018,-0.0183,-0.0186,-0.0374,-0.0376,-0.0378,-0.0451,-0.0451,-0.0451,-0.0451,-0.0519,-0.0521,-0.0523,0,0,0,0,0,0,0,0,0,0,0,0,0,-0.0074,0.0056,-0.0179,-0.0249,-0.0258,-0.0374,-0.0376,-0.0379,-0.0451,-0.0451,-0.0451,-0.0451,-0.0518,-0.0521,-0.0523,-0.0541,0,0,-0.0532,-0.0533,0,0,0,0,0,0,0,0,-0.0066,-0.0082,-0.0236,-0.0245,-0.0255,-0.0394,-0.0317,-0.0429,-0.0451,-0.0371,-0.0451,-0.0451,-0.047,-0.0477,-0.0506,-0.0545,-0.0548,-0.0532,-0.0534,-0.0535,-0.0536,0,0,0,0,0,0,0,-0.0056,-0.0074,-0.025,-0.0239,-0.0251,-0.0295,-0.0313,-0.0339,-0.0411,-0.0378,-0.0385,-0.0417,-0.0473,-0.0503,-0.0508,-0.0549,-0.0532,-0.0535,-0.0536,-0.0537,-0.0602,-0.0602,0,0,0,0,0,0,-0.0042,-0.0065,-0.0244,-0.0257,-0.0165,-0.03,-0.0319,-0.0344,-0.0414,-0.0427,-0.0417,-0.042,-0.0499,-0.0505,-0.0511,-0.0524,-0.0535,-0.0538,-0.0539,-0.0601,-0.0602,-0.0602,0,0,0,0,0,0,-0.0036,-0.0056,-0.0237,-0.0171,-0.0198,-0.0304,-0.0332,-0.0348,-0.0373,-0.0446,-0.0456,-0.0425,-0.0499,-0.0507,-0.0535,-0.0527,-0.0539,-0.0541,-0.0601,-0.0601,-0.0602,-0.0558,0,0,0,0,0,0,-0.0028,-0.0052,-0.0055,-0.017,-0.0201,-0.0289,-0.0333,-0.0352,-0.0397,-0.0402,-0.0456,-0.0463,-0.0499,-0.053,-0.0538,-0.0531,-0.0544,-0.0601,-0.0601,-0.0602,-0.0559,-0.0556,-0.0554,0,0,0,0,0,-0.0019,-0.0026,-0.0054,-0.0076,-0.0204,-0.0289,-0.0307,-0.0379,-0.0396,-0.0401,-0.0447,-0.0461,-0.0536,-0.0533,-0.0541,-0.0536,-0.0601,-0.0601,-0.0602,-0.056,-0.0557,-0.0554,0,0,0,0,0,0,0.0066,-0.0038,-0.007,-0.0111,-0.0186,-0.0303,-0.0321,-0.0369,-0.0412,-0.0411,-0.0466,-0.0477,-0.0498,-0.0523,-0.0518,-0.0555,-0.0569,-0.057,-0.0535,-0.0532,-0.0529,-0.0509,-0.0546,0,0,0,0,0,0.0085,0.0059,-0.005,-0.0083,-0.0112,-0.021,-0.0251,-0.0302,-0.0367,-0.0386,-0.0433,-0.0474,-0.0507,-0.0522,-0.0556,-0.0575,-0.0586,-0.0576,-0.0573,-0.0571,-0.056,-0.0581,-0.0579,-0.0602,-0.0602,-0.0602,0,0,0.0099,0.0044,0.0023,-0.0065,-0.0126,-0.0169,-0.0232,-0.0288,-0.0326,-0.0383,-0.0428,-0.0464,-0.051,-0.0539,-0.0549,-0.0556,-0.0569,-0.0571,-0.0568,-0.0559,-0.0581,-0.0579,-0.0577,-0.0602,-0.0602,-0.0602,0,0,0.0117,0.0078,0.0063,0.0018,-0.0067,-0.0131,-0.0139,-0.0245,-0.0285,-0.0338,-0.0387,-0.0418,-0.0477,-0.0514,-0.0537,-0.0536,-0.0554,-0.0544,-0.0516,-0.0536,-0.0534,-0.0533,-0.0534,-0.0533,-0.0543,-0.0543,-0.0543,0,0.0138,0.0106,0.0045,0.0027,-0.0008,-0.0104,-0.0126,-0.0187,-0.0291,-0.0317,-0.0339,-0.043,-0.0465,-0.0501,-0.0507,-0.0528,-0.0538,-0.0523,-0.0531,-0.053,-0.0529,-0.0531,-0.0531,-0.0541,-0.0542,-0.0542,-0.0542,0,0.0137,0.0125,0.0117,0.0064,0.0026,-0.0009,-0.0098,-0.014,-0.0197,-0.0262,-0.0312,-0.0377,-0.0425,-0.0445,-0.0478,-0.0492,-0.0499,-0.0524,-0.0535,-0.0524,-0.0527,-0.0527,-0.0538,-0.0539,-0.054,-0.054,0,0,0.0134,0.0119,0.0116,0.0119,0.0048,0.0011,-0.0034,-0.011,-0.0135,-0.0222,-0.025,-0.0324,-0.0358,-0.0386,-0.0433,-0.0457,-0.0459,-0.0483,-0.0485,-0.0476,-0.049,-0.0447,-0.0443,-0.0488,-0.0488,-0.0488,-0.0491,0,0.0144,0.0143,0.0126,0.0121,0.011,0.0052,0.002,-0.0048,-0.0116,-0.0164,-0.0237,-0.0277,-0.0338,-0.035,-0.0388,-0.0441,-0.0459,-0.0455,-0.0509,-0.051,-0.0467,-0.0441,-0.0367,-0.0359,-0.0491,-0.0491,-0.0491,0,0.0134,0.0141,0.0148,0.0162,0.0153,0.0142,0.0091,0.0052,-0.003,-0.0073,-0.0131,-0.0193,-0.0245,-0.0292,-0.0377,-0.0372,-0.042,-0.0464,-0.0466,-0.0439,-0.0467,-0.0395,-0.0354,-0.048,-0.0491,-0.0491,-0.0491,0,0.014,0.0155,0.0169,0.0168,0.0158,0.0162,0.0151,0.0082,0.0062,-0.0006,-0.0016,-0.011,-0.0134,-0.0222,-0.0319,-0.0347,-0.0398,-0.0449,-0.0455,-0.0452,-0.0404,-0.0397,-0.0483,-0.0493,-0.0493,-0.0493,-0.0493,0,0.0142,0.0158,0.0185,0.0192,0.0218,0.0206,0.0219,0.018,0.0152,0.0155,0.0046,0.0036,-0.0116,-0.0177,-0.028,-0.0351,-0.0367,-0.0433,-0.0447,-0.0386,-0.0377,-0.0498,-0.0567,-0.0494,-0.0494,-0.0494,-0.0493,0,0.0136,0.015,0.0174,0.0202,0.0221,0.0237,0.0282,0.0292,0.0258,0.0264,0.0256,0.0157,0.0093,-0.0048,-0.0172,-0.0272,-0.0397,-0.0381,-0.0287,-0.0289,-0.042,-0.0487,-0.0541,-0.0574,-0.0393,-0.0392,-0.0391,0,0.0133,0.0144,0.0188,0.0214,0.0236,0.0281,0.0319,0.0329,0.0354,0.0344,0.0361,0.0303,0.028,0.0117,-0.0047,-0.0189,-0.0325,-0.0243,-0.0287,-0.0399,-0.0486,-0.0533,-0.0562,-0.0207,-0.0205,-0.0203,-0.0201,0,0.0134,0.0144,0.0168,0.0223,0.0278,0.0357,0.0427,0.0469,0.0496,0.053,0.0569,0.0561,0.0415,0.0315,0.0114,-0.001,-0.0287,-0.0207,-0.0355,-0.0361,-0.0385,-0.0432,-0.0233,-0.0184,-0.0186,-0.0187,-0.0188,-0.0189,0.0135,0.0148,0.0183,0.0241,0.0316,0.0438,0.0527,0.0618,0.0718,0.0824,0.0784,0.0858,0.0633,0.0384,0.0191,-0.012,-0.0156,-0.0229,-0.0303,-0.0344,-0.0366,-0.0113,-0.0064,-0.0065,-0.0066,-0.0067,-0.0067,0,0.0139,0.0164,0.0209,0.0303,0.0421,0.0462,0.0605,0.072,0.0886,0.1015,0.1105,0.1095,0.0845,0.0516,0.0094,-0.0166,-0.0283,-0.0334,-0.041,-0.0439,-0.0237,-0.0221,-0.0164,-0.0164,-0.0164,-0.0164,-0.0164,-0.0164,0.014,0.0179,0.0209,0.039,0.0487,0.0675,0.0783,0.0937,0.1066,0.1295,0.1413,0.1452,0.1182,0.0367,-0.0205,-0.0353,-0.0555,-0.0563,-0.0707,-0.0608,-0.0606,-0.0604,-0.0608,-0.0633,-0.0634,-0.0851,-0.0853,-0.0855]}],[{"header":{"parameterUnit":"m.s-1","parameterCategory":2,"la1":30.2991,"la2":30.254,"lo1":-89.0895,"lo2":-89.0444,"dy":0.0017,"dx":0.0017,"nx":28,"ny":28,"refTime":"2024-04-19T09:00:00:Z","depth":"2","parameterNumber":2,"parameterNumberName":"U-component_of_CURRENTS"},"data":[0,0,0,0,0,0,0,0,0,0,0,0,0,0,0,0,0,0,0,0,0,0,0,0,0,0,0,0,0,0,0,0,0,0,0,0,0,0,0,0,0,0,0,0,0,0,0,0,0,0,0,0,0,0,0,0,0,0,0.2028,0.203,0,0.206,0.2059,0.2058,0.2013,0.2013,0.2013,0.2013,0.1909,0.1907,0.1904,0,0,0,0,0,0,0,0,0,0,0,0,0,0.1859,0.1862,0.2028,0.203,0.2032,0.206,0.2059,0.2058,0.2013,0.2013,0.2013,0.2012,0.191,0.1907,0.1904,0,0,0,0,0,0,0,0,0,0,0,0,0,0.1901,0.1863,0.2028,0.2025,0.2026,0.206,0.2059,0.2058,0.2013,0.2013,0.2013,0.2012,0.1911,0.1907,0.1904,0.1884,0,0,0.1892,0.189,0,0,0,0,0,0,0,0,0.1899,0.1905,0.2023,0.2025,0.2027,0.2046,0.1963,0.1998,0.2013,0.2001,0.2013,0.2012,0.1953,0.1946,0.1931,0.1879,0.1875,0.1891,0.1889,0.1887,0.1886,0,0,0,0,0,0,0,0.1896,0.1904,0.2025,0.2026,0.2028,0.1999,0.2003,0.1968,0.1963,0.2002,0.2003,0.2032,0.1951,0.1935,0.1929,0.1873,0.1891,0.1888,0.1885,0.1884,0.185,0.1851,0,0,0,0,0,0,0.1929,0.1902,0.2024,0.2027,0.1979,0.2004,0.2008,0.2027,0.1966,0.1963,0.2032,0.203,0.1942,0.1933,0.1925,0.1936,0.1887,0.1884,0.1881,0.1848,0.185,0.1852,0,0,0,0,0,0,0.1925,0.1939,0.2023,0.1978,0.1989,0.2009,0.203,0.2028,0.2032,0.1994,0.1984,0.2042,0.1942,0.193,0.1911,0.1931,0.1882,0.1878,0.1847,0.1849,0.1851,0.1935,0,0,0,0,0,0,0.1919,0.1936,0.1947,0.198,0.1993,0.2051,0.2032,0.203,0.2057,0.2054,0.1998,0.1987,0.1941,0.1918,0.1908,0.1924,0.1875,0.1845,0.1848,0.185,0.193,0.1939,0.1947,0,0,0,0,0,0.1913,0.1919,0.1947,0.1962,0.2011,0.2054,0.2055,0.2057,0.2058,0.2058,0.203,0.199,0.1928,0.1916,0.1903,0.1919,0.1843,0.1847,0.185,0.1926,0.1937,0.1947,0,0,0,0,0,0,0.1845,0.1918,0.1948,0.1977,0.2027,0.2052,0.2052,0.2074,0.2052,0.2048,0.2001,0.1988,0.1981,0.1944,0.1932,0.1921,0.1882,0.1883,0.1944,0.1955,0.1963,0.1973,0.1872,0,0,0,0,0,0.1846,0.1868,0.1946,0.1969,0.1996,0.2033,0.205,0.207,0.2072,0.2063,0.2037,0.2006,0.1983,0.1965,0.1934,0.1922,0.1929,0.1929,0.1938,0.1945,0.1947,0.1977,0.1989,0.1862,0.1862,0.1862,0,0,0.1831,0.1874,0.1888,0.1957,0.1985,0.2026,0.2036,0.2077,0.2105,0.2054,0.2055,0.2035,0.1989,0.1978,0.1972,0.1949,0.1994,0.1949,0.1956,0.1953,0.1982,0.1994,0.2005,0.1864,0.1864,0.1864,0,0,0.1811,0.1851,0.1868,0.1912,0.1988,0.202,0.2046,0.2097,0.2107,0.2128,0.2102,0.2102,0.2058,0.2038,0.2019,0.2059,0.2043,0.2052,0.2094,0.2124,0.2135,0.2144,0.2208,0.2223,0.2051,0.2052,0.2052,0,0.1797,0.1834,0.1879,0.1914,0.1954,0.2026,0.2064,0.2089,0.2129,0.2145,0.2137,0.2119,0.2087,0.2082,0.2098,0.2078,0.2104,0.2056,0.2136,0.2145,0.2153,0.2216,0.2231,0.2056,0.2055,0.2055,0.2055,0,0.18,0.1835,0.1847,0.192,0.1961,0.2007,0.208,0.2122,0.2158,0.2185,0.2209,0.2181,0.2173,0.217,0.2141,0.2182,0.2189,0.215,0.2111,0.2171,0.2234,0.2248,0.2062,0.2061,0.2059,0.2058,0,0,0.1776,0.1838,0.1848,0.1881,0.1975,0.2012,0.2075,0.215,0.2197,0.2227,0.2268,0.2251,0.2261,0.2242,0.2222,0.2245,0.234,0.2227,0.2226,0.2294,0.2443,0.2458,0.2474,0.2316,0.2318,0.232,0.248,0,0.1779,0.1821,0.1861,0.1919,0.1957,0.2038,0.209,0.2165,0.2221,0.2274,0.2284,0.2306,0.228,0.229,0.2313,0.2325,0.2374,0.2303,0.2371,0.2374,0.2381,0.2489,0.218,0.2296,0.2493,0.2495,0.2497,0,0.179,0.1817,0.1858,0.1934,0.196,0.2006,0.2117,0.2172,0.2266,0.2309,0.235,0.2365,0.241,0.2377,0.2453,0.2412,0.2444,0.2456,0.2462,0.2449,0.2412,0.2258,0.2313,0.2519,0.2517,0.2516,0.2514,0,0.1763,0.1825,0.1851,0.1878,0.1971,0.2013,0.2074,0.218,0.2238,0.2337,0.2395,0.2438,0.2478,0.2513,0.2564,0.2516,0.2659,0.259,0.2642,0.2645,0.2381,0.2357,0.2662,0.2662,0.2661,0.2661,0.266,0,0.1763,0.1793,0.1838,0.186,0.1912,0.1987,0.2065,0.2145,0.2255,0.2329,0.2403,0.2473,0.2515,0.2599,0.2617,0.2701,0.2713,0.2685,0.2692,0.2408,0.2385,0.2554,0.254,0.2667,0.2665,0.2664,0.2663,0,0.1744,0.1772,0.1808,0.1878,0.1901,0.1941,0.2056,0.2117,0.2238,0.2344,0.2384,0.2523,0.2649,0.2716,0.2799,0.2785,0.2846,0.2872,0.2567,0.2535,0.2799,0.2787,0.2942,0.2944,0.2945,0.2947,0.2948,0,0.1736,0.1748,0.18,0.1818,0.1851,0.1916,0.1971,0.2094,0.2167,0.2371,0.242,0.2593,0.2668,0.2835,0.2807,0.2871,0.296,0.2703,0.2548,0.2841,0.2831,0.2816,0.2802,0.2242,0.2237,0.2233,0.223,0,0.1717,0.1733,0.1754,0.1788,0.183,0.1877,0.1965,0.202,0.2179,0.2279,0.2431,0.2503,0.2632,0.255,0.2664,0.2659,0.2661,0.2633,0.3004,0.2235,0.2198,0.2183,0.2188,0.2196,0.2199,0.2202,0.2204,0.2205,0.1696,0.1698,0.1719,0.1755,0.1795,0.1838,0.1865,0.1946,0.2037,0.2131,0.2267,0.2283,0.232,0.23,0.2291,0.2322,0.2495,0.2413,0.2417,0.2426,0.2333,0.2302,0.2305,0.2308,0.2312,0.2315,0.2317,0,0.1655,0.1668,0.169,0.1717,0.1736,0.1788,0.1859,0.183,0.1876,0.1942,0.1978,0.1816,0.1761,0.1887,0.1807,0.1859,0.1739,0.1877,0.1665,0.1701,0.1734,0.1596,0.1377,0.1374,0.1372,0.137,0,0,0.1632,0.1628,0.1638,0.1645,0.1678,0.1676,0.1702,0.164,0.1639,0.1572,0.1557,0.1562,0.1731,0.1463,0.1473,0.1418,0.1538,0.1372,0.2116,0.1894,0.1922,0.2034,0.1866,0,0,0,0,0]},{"header":{"parameterUnit":"m.s-1","parameterCategory":2,"la1":30.2991,"la2":30.254,"lo1":-89.0895,"lo2":-89.0444,"dy":0.0017,"dx":0.0017,"nx":28,"ny":28,"refTime":"2024-04-19T09:00:00:Z","depth":"2","parameterNumber":3,"parameterNumberName":"V-component_of_CURRENTS"},"data":[0,0,0,0,0,0,0,0,0,0,0,0,0,0,0,0,0,0,0,0,0,0,0,0,0,0,0,0,0,0,0,0,0,0,0,0,0,0,0,0,0,0,0,0,0,0,0,0,0,0,0,0,0,0,0,0,0,0,-0.0197,-0.0197,0,-0.0114,-0.0112,-0.0111,-0.0043,-0.0043,-0.0043,-0.0043,0.0005,0.0006,0.0008,0,0,0,0,0,0,0,0,0,0,0,0,0,-0.0051,-0.0054,-0.0197,-0.0197,-0.0197,-0.0115,-0.0112,-0.011,-0.0043,-0.0043,-0.0043,-0.0043,0.0004,0.0006,0.0008,0,0,0,0,0,0,0,0,0,0,0,0,0,-0.0046,-0.0055,-0.0197,-0.0161,-0.0157,-0.0115,-0.0112,-0.011,-0.0043,-0.0043,-0.0043,-0.0044,0.0004,0.0006,0.0008,0.0029,0,0,0.0015,0.0016,0,0,0,0,0,0,0,0,-0.0047,-0.0051,-0.0166,-0.0163,-0.016,-0.0098,-0.0043,-0.0069,-0.0042,-0.0075,-0.0043,-0.0044,-0.0039,-0.0034,-0.0002,0.0032,0.0034,0.0015,0.0017,0.0018,0.0018,0,0,0,0,0,0,0,-0.0048,-0.0052,-0.0153,-0.0166,-0.0162,-0.0065,-0.0066,-0.0046,-0.0049,-0.0072,-0.007,-0.0077,-0.0036,-0.0004,-0.0001,0.0034,0.0015,0.0017,0.0019,0.002,0.004,0.0039,0,0,0,0,0,0,-0.0092,-0.0055,-0.0156,-0.0152,-0.0115,-0.0069,-0.007,-0.0109,-0.0048,-0.0042,-0.0077,-0.0074,-0.0008,-0.0003,0.0001,-0.0004,0.0018,0.002,0.0021,0.0041,0.004,0.0039,0,0,0,0,0,0,-0.009,-0.0103,-0.016,-0.0107,-0.0109,-0.0075,-0.0117,-0.0107,-0.0101,-0.0053,-0.0045,-0.0085,-0.0008,-0.0002,0.0018,-0.0,0.0021,0.0023,0.0042,0.0041,0.0039,0.0007,0,0,0,0,0,0,-0.0087,-0.0104,-0.013,-0.0112,-0.0114,-0.0151,-0.0118,-0.0106,-0.0108,-0.0104,-0.0057,-0.0051,-0.0008,0.0014,0.002,0.0003,0.0025,0.0043,0.0041,0.004,0.0009,0.0005,0.0001,0,0,0,0,0,-0.0082,-0.0108,-0.0133,-0.0144,-0.0159,-0.0153,-0.0143,-0.011,-0.0109,-0.0104,-0.0066,-0.0054,0.0008,0.0016,0.0023,0.0006,0.0044,0.0042,0.004,0.0011,0.0006,0.0002,0,0,0,0,0,0,-0.0017,-0.0105,-0.013,-0.0173,-0.018,-0.0146,-0.0135,-0.0131,-0.0094,-0.0096,-0.005,-0.004,-0.003,-0.0013,-0.0006,0.0005,0.0021,0.0021,-0.0003,-0.0008,-0.0012,-0.0015,0.0026,0,0,0,0,0,-0.0035,-0.0096,-0.014,-0.0164,-0.0187,-0.0174,-0.0166,-0.0158,-0.0133,-0.0118,-0.009,-0.0061,-0.0028,-0.002,0.0012,0.0017,0.0016,0.0005,0.0001,-0.0003,-0.0002,-0.0013,-0.0018,0.0033,0.0033,0.0033,0,0,-0.0003,-0.0066,-0.0089,-0.0157,-0.016,-0.0171,-0.0167,-0.0174,-0.0162,-0.0121,-0.0094,-0.0073,-0.0029,-0.0006,-0.0004,0.0001,-0.0022,-0.0005,-0.0008,-0.0006,-0.0016,-0.0021,-0.0025,0.0032,0.0032,0.0032,0,0,0.0029,-0.005,-0.0093,-0.0122,-0.0172,-0.0169,-0.0191,-0.0196,-0.0185,-0.0171,-0.0131,-0.012,-0.0084,-0.0043,-0.0019,-0.0034,-0.0039,-0.0046,-0.0069,-0.008,-0.0085,-0.0088,-0.0113,-0.0118,-0.0053,-0.0053,-0.0053,0,0.0074,-0.0005,-0.0085,-0.0129,-0.0142,-0.0183,-0.0194,-0.0187,-0.0173,-0.0161,-0.0174,-0.0115,-0.0093,-0.0045,-0.0053,-0.0042,-0.0059,-0.0051,-0.0085,-0.0089,-0.0092,-0.0116,-0.0121,-0.0054,-0.0054,-0.0054,-0.0054,0,0.0076,0.0011,-0.001,-0.0099,-0.0118,-0.0135,-0.0171,-0.0176,-0.019,-0.0179,-0.0165,-0.0135,-0.0102,-0.0105,-0.0082,-0.0091,-0.0101,-0.0085,-0.0072,-0.0099,-0.0123,-0.0128,-0.0057,-0.0056,-0.0056,-0.0055,0,0,0.018,0.0019,0.0013,-0.0029,-0.0113,-0.012,-0.013,-0.0137,-0.0123,-0.0147,-0.0123,-0.0106,-0.0122,-0.0099,-0.0086,-0.0107,-0.0156,-0.0121,-0.0121,-0.0144,-0.0204,-0.0144,-0.0144,-0.0155,-0.0156,-0.0157,-0.0217,0,0.0214,0.0134,0.0049,0.0018,-0.0022,-0.0078,-0.007,-0.0084,-0.0095,-0.0083,-0.0098,-0.0075,-0.0111,-0.0104,-0.0135,-0.0128,-0.0169,-0.0142,-0.0175,-0.0176,-0.0118,-0.0147,-0.0151,-0.02,-0.0222,-0.0223,-0.0224,0,0.0246,0.0178,0.0136,0.0048,0.003,0.0018,0.0011,0.0006,-0.0002,-0.0014,-0.0033,-0.0045,-0.0068,-0.0102,-0.0156,-0.0143,-0.0192,-0.0209,-0.0211,-0.0144,-0.0125,-0.0173,-0.0208,-0.0232,-0.0232,-0.0231,-0.0231,0,0.0357,0.0247,0.0215,0.0184,0.0089,0.0082,0.0051,0.0037,0.0046,0.0021,0.003,-0.0015,-0.002,-0.0095,-0.0151,-0.0167,-0.0209,-0.0222,-0.0222,-0.0219,-0.022,-0.0214,-0.0286,-0.0286,-0.0286,-0.0286,-0.0286,0,0.0418,0.0393,0.0258,0.0242,0.0233,0.0143,0.0155,0.0129,0.0111,0.0143,0.0061,0.0093,-0.0025,-0.0057,-0.014,-0.0184,-0.0207,-0.0231,-0.0227,-0.0232,-0.0227,-0.0245,-0.0239,-0.0288,-0.0288,-0.0287,-0.0287,0,0.0533,0.0443,0.0401,0.03,0.0274,0.0269,0.0201,0.0218,0.0184,0.0224,0.0214,0.0168,0.0131,0.003,-0.0062,-0.0138,-0.0198,-0.0214,-0.0215,-0.0209,-0.0218,-0.0213,-0.0239,-0.0237,-0.0236,-0.0235,-0.0234,0,0.0572,0.0559,0.0463,0.0442,0.0388,0.0351,0.0338,0.0271,0.0289,0.0298,0.0339,0.0303,0.0342,0.022,0.0048,-0.0087,-0.0123,-0.0182,-0.0202,-0.0218,-0.0212,-0.0209,-0.0207,-0.024,-0.0239,-0.0238,-0.0238,0,0.0651,0.0623,0.0586,0.0546,0.0514,0.0488,0.0458,0.0494,0.0454,0.0521,0.0616,0.0652,0.05,0.0374,0.0152,0.0048,-0.0161,-0.0167,-0.0189,-0.0224,-0.0215,-0.021,-0.0209,-0.0231,-0.0232,-0.0232,-0.0233,-0.0233,0.0719,0.0718,0.0668,0.0642,0.0616,0.063,0.0649,0.0679,0.0765,0.0839,0.0836,0.0866,0.064,0.038,0.0187,-0.0068,-0.0063,-0.0162,-0.0167,-0.0171,-0.0133,-0.0119,-0.0113,-0.0113,-0.0113,-0.0113,-0.0113,0,0.0775,0.0759,0.0753,0.0722,0.0737,0.0689,0.0731,0.0785,0.0944,0.098,0.1064,0.0881,0.0714,0.0449,0.0086,-0.0093,-0.0154,-0.0153,-0.0206,-0.021,-0.0214,-0.0181,-0.0173,-0.0173,-0.0174,-0.0174,0,0,0.0794,0.0807,0.0805,0.0832,0.0819,0.0851,0.0893,0.1002,0.105,0.1143,0.1115,0.1037,0.0753,0.0484,0.0217,0.0019,-0.0054,-0.0022,0.0044,0.0009,0.0007,-0.0202,-0.0151,0,0,0,0,0]}],[{"header":{"parameterUnit":"m.s-1","parameterCategory":2,"la1":30.2991,"la2":30.254,"lo1":-89.0895,"lo2":-89.0444,"dy":0.0017,"dx":0.0017,"nx":28,"ny":28,"refTime":"2024-04-19T09:00:00:Z","depth":"4","parameterNumber":2,"parameterNumberName":"U-component_of_CURRENTS"},"data":[0,0,0,0,0,0,0,0,0,0,0,0,0,0,0,0,0,0,0,0,0,0,0,0,0,0,0,0,0,0,0,0,0,0,0,0,0,0,0,0,0,0,0,0,0,0,0,0,0,0,0,0,0,0,0,0,0,0,0.0509,0.051,0,0.0577,0.0578,0.0578,0.0622,0.0622,0.0622,0.0622,0.0676,0.0677,0.0679,0,0,0,0,0,0,0,0,0,0,0,0,0,0.0477,0.0477,0.0509,0.051,0.051,0.0577,0.0578,0.0578,0.0622,0.0622,0.0622,0.0623,0.0676,0.0677,0.0679,0,0,0,0,0,0,0,0,0,0,0,0,0,0.0512,0.0477,0.0509,0.054,0.0544,0.0576,0.0578,0.0579,0.0622,0.0622,0.0622,0.0623,0.0675,0.0677,0.0679,0.0682,0,0,0.0684,0.0685,0,0,0,0,0,0,0,0,0.051,0.0513,0.0535,0.0538,0.0542,0.0591,0.0586,0.0612,0.0621,0.0592,0.0622,0.0623,0.0646,0.065,0.0662,0.0684,0.0686,0.0684,0.0685,0.0686,0.0687,0,0,0,0,0,0,0,0.0508,0.0511,0.0536,0.0535,0.054,0.0572,0.0577,0.0592,0.0615,0.0594,0.0598,0.0605,0.0648,0.0661,0.0664,0.0687,0.0684,0.0686,0.0687,0.0688,0.0795,0.0797,0,0,0,0,0,0,0.0496,0.0508,0.0533,0.0538,0.0527,0.0572,0.0577,0.0575,0.0616,0.0623,0.0605,0.0607,0.0657,0.0662,0.0666,0.0767,0.0686,0.0688,0.0689,0.0793,0.0795,0.0797,0,0,0,0,0,0,0.0495,0.0497,0.0531,0.0525,0.0532,0.0571,0.0569,0.0576,0.0616,0.0624,0.0631,0.0641,0.0658,0.0663,0.0688,0.0766,0.0689,0.069,0.0791,0.0794,0.0796,0.0907,0,0,0,0,0,0,0.0493,0.0496,0.0491,0.0524,0.0532,0.0566,0.0569,0.0577,0.0618,0.0623,0.0656,0.066,0.0659,0.0685,0.069,0.0767,0.0692,0.0789,0.0792,0.0796,0.0902,0.0914,0.0924,0,0,0,0,0,0.0492,0.049,0.049,0.0493,0.0522,0.0567,0.0574,0.0604,0.062,0.0641,0.0654,0.066,0.0711,0.0687,0.0692,0.0772,0.0787,0.0791,0.0795,0.0896,0.0911,0.0924,0,0,0,0,0,0,0.0488,0.0495,0.0495,0.0499,0.0534,0.0574,0.0609,0.0621,0.065,0.0662,0.0667,0.0671,0.0733,0.0721,0.0695,0.081,0.0758,0.0763,0.0833,0.0847,0.0858,0.0895,0.0693,0,0,0,0,0,0.0479,0.0478,0.05,0.0512,0.0538,0.0577,0.06,0.0618,0.0648,0.0665,0.069,0.0716,0.075,0.077,0.0792,0.084,0.0815,0.0898,0.0909,0.0919,0.0951,0.0931,0.0944,0.0811,0.0811,0.0811,0,0,0.0492,0.0489,0.0496,0.0511,0.0555,0.0585,0.0595,0.0648,0.0684,0.0664,0.0735,0.0757,0.0769,0.0833,0.0861,0.0835,0.0945,0.0924,0.0933,0.096,0.0937,0.095,0.0961,0.0813,0.0813,0.0812,0,0,0.051,0.0517,0.0522,0.0544,0.0586,0.0615,0.0635,0.0689,0.0733,0.0784,0.0793,0.084,0.0895,0.0918,0.0936,0.1015,0.1004,0.1049,0.1143,0.1123,0.1134,0.1143,0.1131,0.1139,0.1055,0.1056,0.1056,0,0.0514,0.0519,0.0538,0.0548,0.0591,0.0632,0.0676,0.0715,0.0767,0.0797,0.0821,0.0927,0.0936,0.1013,0.1067,0.1045,0.1041,0.1091,0.1138,0.1146,0.1154,0.114,0.1146,0.1062,0.1061,0.106,0.106,0,0.0539,0.054,0.0567,0.0587,0.0637,0.0686,0.0746,0.0782,0.0848,0.0882,0.0992,0.1035,0.1093,0.1126,0.1138,0.1224,0.1206,0.1151,0.1104,0.1174,0.1154,0.1159,0.107,0.1068,0.1066,0.1065,0,0,0.0542,0.057,0.0576,0.0587,0.0667,0.0701,0.0777,0.0845,0.089,0.0979,0.1053,0.1174,0.1222,0.1248,0.1285,0.131,0.1367,0.1292,0.1288,0.1284,0.1352,0.1262,0.1258,0.1331,0.1333,0.1334,0.1318,0,0.0559,0.0572,0.0606,0.0655,0.0687,0.0745,0.0812,0.0871,0.096,0.1023,0.1106,0.1198,0.1263,0.1326,0.137,0.1356,0.1388,0.1378,0.1284,0.1282,0.1194,0.1263,0.1339,0.1321,0.1322,0.1323,0.1323,0,0.0567,0.0573,0.0626,0.0674,0.0704,0.0743,0.0859,0.0923,0.1006,0.1076,0.119,0.1256,0.1357,0.138,0.1443,0.1445,0.1439,0.1426,0.1422,0.1309,0.1201,0.1235,0.1331,0.1331,0.133,0.133,0.1329,0,0.0557,0.0585,0.0632,0.065,0.0717,0.0759,0.0821,0.0932,0.1003,0.1118,0.1176,0.1299,0.1373,0.1396,0.1431,0.1443,0.1449,0.1413,0.133,0.1322,0.1356,0.1346,0.1447,0.1447,0.1447,0.1447,0.1447,0,0.0553,0.0573,0.0612,0.0625,0.0675,0.0756,0.0851,0.0908,0.1026,0.11,0.1222,0.1307,0.1393,0.1417,0.1422,0.1399,0.143,0.1377,0.132,0.1403,0.1399,0.1359,0.1349,0.1446,0.1446,0.1446,0.1446,0,0.0528,0.0558,0.0581,0.0643,0.0664,0.0709,0.0834,0.089,0.1019,0.1118,0.116,0.1305,0.1354,0.1392,0.1402,0.1378,0.1339,0.1313,0.1417,0.136,0.1235,0.1231,0.1231,0.1227,0.1225,0.1223,0.1221,0,0.0512,0.0523,0.0574,0.0585,0.0613,0.0685,0.0735,0.0868,0.0939,0.1112,0.1133,0.1243,0.1323,0.1262,0.1309,0.1275,0.127,0.1245,0.1273,0.1273,0.1217,0.1217,0.1217,0.1216,0.1216,0.1215,0.1214,0,0.0475,0.0504,0.0519,0.0538,0.0576,0.0624,0.0705,0.0747,0.0906,0.1016,0.1098,0.1147,0.1191,0.1216,0.1198,0.1174,0.1255,0.1218,0.1224,0.125,0.1255,0.1203,0.1206,0.1205,0.1207,0.1207,0.1208,0,0.0445,0.0442,0.0461,0.0475,0.051,0.0541,0.0608,0.0682,0.0765,0.0955,0.0971,0.1075,0.1176,0.1162,0.1132,0.1112,0.1118,0.1092,0.1105,0.1116,0.1089,0.1078,0.0948,0,0,0,0,0,0.0403,0.0392,0.0392,0.0405,0.044,0.047,0.0564,0.0643,0.0787,0.0816,0.09,0.0936,0.0978,0.1025,0.0983,0.1075,0.1103,0.1022,0.1074,0.1154,0.1165,0.1145,0,0,0,0,0,0,0.0376,0.0373,0.0362,0.0335,0.0342,0.0388,0.0452,0.0562,0.0588,0.0736,0.0752,0.0869,0.09,0.0976,0.0958,0.097,0.0983,0.1082,0.1079,0.1148,0.1158,0.1166,0.115,0,0,0,0,0]},{"header":{"parameterUnit":"m.s-1","parameterCategory":2,"la1":30.2991,"la2":30.254,"lo1":-89.0895,"lo2":-89.0444,"dy":0.0017,"dx":0.0017,"nx":28,"ny":28,"refTime":"2024-04-19T09:00:00:Z","depth":"4","parameterNumber":3,"parameterNumberName":"V-component_of_CURRENTS"},"data":[0,0,0,0,0,0,0,0,0,0,0,0,0,0,0,0,0,0,0,0,0,0,0,0,0,0,0,0,0,0,0,0,0,0,0,0,0,0,0,0,0,0,0,0,0,0,0,0,0,0,0,0,0,0,0,0,0,0,0.0367,0.0367,0,0.0326,0.0326,0.0326,0.0317,0.0317,0.0317,0.0317,0.0268,0.0267,0.0265,0,0,0,0,0,0,0,0,0,0,0,0,0,0.0415,0.0414,0.0367,0.0367,0.0366,0.0326,0.0326,0.0325,0.0317,0.0317,0.0317,0.0318,0.0269,0.0267,0.0265,0,0,0,0,0,0,0,0,0,0,0,0,0,0.0387,0.0414,0.0367,0.0356,0.0355,0.0327,0.0326,0.0325,0.0317,0.0317,0.0317,0.0318,0.0269,0.0267,0.0265,0.0244,0,0,0.0258,0.0257,0,0,0,0,0,0,0,0,0.0388,0.0385,0.0358,0.0357,0.0355,0.0326,0.0324,0.0297,0.0317,0.0332,0.0317,0.0318,0.0286,0.0282,0.0275,0.0241,0.0239,0.0257,0.0256,0.0255,0.0254,0,0,0,0,0,0,0,0.039,0.0387,0.0352,0.0358,0.0356,0.0346,0.0342,0.0319,0.0308,0.0331,0.033,0.0324,0.0285,0.0277,0.0274,0.0238,0.0258,0.0255,0.0254,0.0253,0.0181,0.0181,0,0,0,0,0,0,0.0395,0.0388,0.0353,0.035,0.0372,0.0344,0.0341,0.0336,0.0308,0.0304,0.0324,0.0324,0.0281,0.0277,0.0272,0.0259,0.0255,0.0253,0.0252,0.0182,0.0181,0.018,0,0,0,0,0,0,0.0396,0.0392,0.0355,0.0368,0.0362,0.0343,0.0338,0.0335,0.0337,0.0303,0.0299,0.033,0.0281,0.0275,0.0247,0.0256,0.0252,0.025,0.0182,0.0181,0.0181,0.0223,0,0,0,0,0,0,0.0397,0.0393,0.0393,0.0368,0.0362,0.0343,0.0337,0.0334,0.0332,0.0332,0.0307,0.0302,0.0281,0.0251,0.0245,0.0253,0.0248,0.0183,0.0182,0.0181,0.0222,0.0224,0.0225,0,0,0,0,0,0.0399,0.0394,0.0393,0.0389,0.0362,0.0343,0.0339,0.0327,0.0332,0.0332,0.0308,0.0304,0.0241,0.0248,0.0242,0.0249,0.0183,0.0182,0.0181,0.0222,0.0224,0.0225,0,0,0,0,0,0,0.0415,0.0392,0.0391,0.0379,0.0367,0.0341,0.0349,0.0335,0.0317,0.0323,0.0293,0.0285,0.0265,0.0245,0.0255,0.0223,0.0213,0.021,0.0246,0.0248,0.0249,0.0278,0.0246,0,0,0,0,0,0.0419,0.0414,0.039,0.0387,0.039,0.0374,0.0367,0.0354,0.0333,0.0328,0.0306,0.0281,0.0252,0.0242,0.0214,0.0197,0.0172,0.0196,0.0198,0.0199,0.0217,0.0154,0.0151,0.0176,0.0176,0.0176,0,0,0.043,0.0414,0.0415,0.0391,0.0394,0.039,0.0373,0.037,0.0362,0.0324,0.0318,0.0285,0.0247,0.0225,0.0215,0.0213,0.0181,0.0198,0.02,0.0217,0.0152,0.015,0.0148,0.0176,0.0176,0.0176,0,0,0.0443,0.044,0.0441,0.0431,0.0421,0.041,0.0413,0.0391,0.0386,0.0363,0.0333,0.0301,0.0269,0.0235,0.0216,0.0206,0.0188,0.0204,0.024,0.0178,0.0176,0.0174,0.0154,0.015,0.0208,0.0208,0.0208,0,0.0453,0.0452,0.044,0.0435,0.0443,0.0425,0.0436,0.0417,0.0381,0.0369,0.037,0.031,0.0273,0.024,0.0238,0.0212,0.019,0.024,0.0181,0.0178,0.0175,0.0156,0.015,0.021,0.021,0.021,0.0209,0,0.0465,0.0466,0.0475,0.047,0.0472,0.048,0.0461,0.0442,0.0439,0.0414,0.0389,0.0343,0.031,0.0288,0.0265,0.0229,0.0226,0.0188,0.0183,0.0176,0.0155,0.0149,0.0213,0.0212,0.0212,0.0211,0,0,0.0483,0.0484,0.0488,0.0497,0.0498,0.0496,0.049,0.0472,0.0466,0.0433,0.0424,0.0376,0.0363,0.0341,0.0306,0.0257,0.0214,0.0228,0.0224,0.0221,0.0112,0.0101,0.0092,0.0165,0.0164,0.0163,0.0112,0,0.0505,0.0511,0.051,0.0531,0.0546,0.053,0.0532,0.0504,0.049,0.0463,0.0417,0.0402,0.0382,0.0377,0.0326,0.0232,0.0198,0.0234,0.011,0.0108,0.0106,0.0084,0.0159,0.0108,0.0106,0.0105,0.0104,0,0.0518,0.0523,0.0554,0.0568,0.0579,0.059,0.0597,0.059,0.054,0.0526,0.0501,0.0466,0.0411,0.0389,0.0267,0.0294,0.0223,0.0154,0.0149,0.0123,0.0083,0.0109,0.0092,0.0093,0.0094,0.0095,0.0096,0,0.0542,0.0553,0.0588,0.0592,0.0602,0.0619,0.0635,0.0614,0.0617,0.0576,0.0568,0.0503,0.048,0.0373,0.0256,0.0257,0.011,0.0081,0.0013,0.0013,0.0023,0.0025,-0.0003,-0.0003,-0.0003,-0.0002,-0.0002,0,0.0557,0.0578,0.0603,0.0616,0.066,0.0666,0.0714,0.069,0.0684,0.0684,0.0627,0.0605,0.0473,0.0375,0.0263,0.0128,0.0116,0.0027,-0.0009,0.0044,0.0049,0.0019,0.0023,-0.0004,-0.0004,-0.0003,-0.0003,0,0.0564,0.0583,0.0617,0.0652,0.0672,0.0709,0.0774,0.0791,0.0782,0.0776,0.0768,0.0675,0.0546,0.041,0.0225,0.0148,0.0002,-0.0042,0.0058,0.0026,-0.0046,-0.004,-0.0116,-0.0117,-0.0118,-0.0119,-0.012,0,0.0559,0.0583,0.0646,0.0685,0.0713,0.0777,0.082,0.0838,0.0849,0.081,0.079,0.0687,0.0607,0.0354,0.0206,0.0002,-0.003,-0.0075,-0.008,-0.0034,-0.0062,-0.0055,-0.0048,-0.0121,-0.0121,-0.0121,-0.0122,0,0.0555,0.0595,0.0626,0.0707,0.0773,0.0835,0.0891,0.0894,0.0897,0.0895,0.0796,0.0673,0.0527,0.034,0.019,0.0037,-0.0038,-0.0085,-0.0084,-0.0089,-0.0041,-0.0066,-0.0058,-0.0125,-0.0124,-0.0124,-0.0124,0,0.0561,0.059,0.065,0.0719,0.0794,0.0849,0.089,0.0892,0.0898,0.0838,0.0806,0.0652,0.0574,0.0357,0.0205,0.0065,0.003,-0.0002,-0.0007,-0.0005,0.0035,0.0114,0.0048,0,0,0,0,0,0.0552,0.0597,0.0657,0.0736,0.0806,0.0852,0.0901,0.093,0.0925,0.0856,0.0828,0.0684,0.0462,0.0363,0.0218,0.0186,0.0008,0.0014,-0.003,-0.0141,-0.0138,-0.0113,0,0,0,0,0,0,0.0562,0.0617,0.0647,0.0721,0.0774,0.0856,0.0886,0.0897,0.0847,0.0822,0.0695,0.0658,0.0432,0.054,0.0216,0.0176,0.0132,-0.0084,-0.0087,-0.0143,-0.014,-0.0137,-0.011,0,0,0,0,0]}]]